DW5444 Weather Reports


time (UTC)temp
C
wind
direction
speed
KPH
gust
KPH
rain 1hr
cm
rain 24hr
cm
rain mn
cm
humidity
%
barometer
mb
20260508163023 14 249 14.5 24.1 0.00 0.00 0.00 53 1015.5
20260508161534 13 260 8.0 14.5 0.00 0.00 0.00 58 1015.4
20260508160017 12 254 8.0 12.9 0.00 0.00 0.00 61 1015.4
20260508154520 12 248 8.0 14.5 0.00 0.00 0.00 61 1015.4
20260508153025 12 241 9.7 16.1 0.00 0.00 0.00 59 1015.4
20260508151512 12 232 9.7 16.1 0.00 0.00 0.00 58 1015.2
20260508150011 12 251 9.7 16.1 0.00 0.00 0.00 56 1015.3
20260508144510 13 265 11.3 20.9 0.00 0.00 0.00 52 1015.2
20260508143009 12 275 8.0 17.7 0.00 0.00 0.00 52 1015.2
20260508141507 13 220 6.4 20.9 0.00 0.00 0.00 49 1015.1
20260508140006 12 222 6.4 14.5 0.00 0.00 0.00 49 1015.1
20260508134600 12 239 4.8 11.3 0.00 0.00 0.00 49 1014.8
20260508133103 11 213 4.8 8.0 0.00 0.00 0.00 50 1014.7
20260508131557 10 239 4.8 9.7 0.00 0.00 0.00 50 1014.7
20260508130056 10 230 6.4 12.9 0.00 0.00 0.00 49 1014.7
20260508124555 10 225 3.2 9.7 0.00 0.00 0.00 46 1014.6
20260508123054 11 223 3.2 14.5 0.00 0.00 0.00 47 1014.5
20260508121552 10 213 8.0 17.7 0.00 0.00 0.00 43 1014.5
20260508120100 10 218 4.8 11.3 0.00 0.00 0.00 48 1014.4
20260508114559 10 237 6.4 11.3 0.00 0.00 0.00 49 1014.5
20260508113050 10 199 3.2 9.7 0.00 0.00 0.00 49 1014.6
20260508111546 10 222 4.8 9.7 0.00 0.00 0.00 46 1014.5
20260508110048 11 220 8.0 16.1 0.00 0.00 0.00 46 1014.5
20260508104545 11 195 6.4 12.9 0.00 0.00 0.00 46 1014.5
20260508103048 11 239 8.0 16.1 0.00 0.00 0.00 46 1014.4
20260508101642 11 225 8.0 14.5 0.00 0.00 0.00 45 1014.4
20260508100058 11 208 6.4 16.1 0.00 0.00 0.00 45 1014.3
20260508094543 11 213 9.7 19.3 0.00 0.00 0.00 44 1014.3
20260508093039 11 194 6.4 14.5 0.00 0.00 0.00 46 1014.2
20260508091546 11 225 6.4 12.9 0.00 0.00 0.00 43 1014.3
20260508090040 10 227 8.0 16.1 0.00 0.00 0.00 42 1014.4
20260508084533 10 159 4.8 12.9 0.00 0.00 0.00 39 1014.4
20260508083033 10 146 3.2 6.4 0.00 0.00 0.00 40 1014.3
20260508081530 11 104 4.8 9.7 0.00 0.00 0.00 35 1014.3
20260508080034 11 167 4.8 11.3 0.00 0.00 0.00 35 1014.2
20260508074531 10 129 6.4 11.3 0.00 0.00 0.00 32 1014.1
20260508073029 10 149 4.8 6.4 0.00 0.00 0.00 32 1014.0
20260508071532 10 163 4.8 8.0 0.00 0.00 0.00 32 1014.2
20260508070020 11 151 4.8 9.7 0.00 0.00 0.00 32 1014.1
20260508064526 11 202 3.2 9.7 0.00 0.00 0.00 30 1014.0
20260508063021 11 206 4.8 9.7 0.00 0.00 0.00 30 1014.0
20260508061518 11 209 4.8 9.7 0.00 0.00 0.00 27 1014.0
20260508060025 12 230 8.0 14.5 0.00 0.00 0.00 22 1014.1
20260508054542 13 234 9.7 17.7 0.00 0.00 0.00 21 1014.2
20260508053017 13 229 8.0 16.1 0.00 0.00 0.00 22 1014.1
20260508051515 13 210 8.0 19.3 0.00 0.00 0.00 22 1014.0
20260508050014 14 247 8.0 19.3 0.00 0.00 0.00 22 1013.9
20260508044514 14 208 6.4 14.5 0.00 0.00 0.00 23 1014.0
20260508043013 14 226 8.0 16.1 0.00 0.00 0.00 23 1013.9
20260508041514 13 222 8.0 16.1 0.00 0.00 0.00 24 1013.7
20260508040011 13 242 4.8 8.0 0.00 0.00 0.00 26 1013.6
20260508034511 13 199 1.6 8.0 0.00 0.00 0.00 28 1013.4
20260508033014 13 209 3.2 9.7 0.00 0.00 0.00 26 1013.2
20260508031511 14 229 4.8 9.7 0.00 0.00 0.00 26 1013.1
20260508030007 15 205 3.2 11.3 0.00 0.00 0.00 29 1013.1
20260508024508 15 239 4.8 8.0 0.00 0.00 0.00 35 1013.0
20260508023008 15 230 4.8 8.0 0.00 0.00 0.00 37 1012.9
20260508021505 15 195 3.2 4.8 0.00 0.00 0.00 41 1012.8
20260508020006 16 156 0.0 1.6 0.00 0.00 0.00 40 1012.8
20260508014506 16 233 0.0 3.2 0.00 0.00 0.00 37 1012.8
20260508013005 17 246 3.2 4.8 0.00 0.00 0.00 35 1012.8
20260508011504 17 236 3.2 4.8 0.00 0.00 0.00 32 1012.9
20260508010007 17 254 4.8 11.3 0.00 0.00 0.00 31 1012.9
20260508004505 18 264 8.0 12.9 0.00 0.00 0.00 30 1012.9
20260508003001 18 265 8.0 19.3 0.00 0.00 0.00 29 1012.9
20260508001505 20 258 9.7 19.3 0.00 0.00 0.00 26 1012.8
20260508000100 20 248 12.9 19.3 0.00 0.00 0.00 24 1012.9
20260507234603 20 257 12.9 20.9 0.00 0.00 0.00 24 1012.9
20260507233057 19 253 12.9 22.5 0.00 0.00 0.00 25 1013.1
20260507231555 20 229 12.9 20.9 0.00 0.00 0.00 26 1013.0
20260507230054 20 268 16.1 25.7 0.00 0.00 0.00 23 1013.2
20260507224552 20 270 12.9 20.9 0.00 0.00 0.00 32 1013.3
20260507223050 20 244 12.9 19.3 0.00 0.00 0.00 30 1013.4
20260507221549 20 281 12.9 22.5 0.00 0.00 0.00 36 1013.5
20260507220046 19 267 11.3 19.3 0.00 0.00 0.00 37 1013.7
20260507214549 19 288 8.0 19.3 0.00 0.00 0.00 33 1013.8
20260507213047 19 279 11.3 20.9 0.00 0.00 0.00 34 1013.8
20260507211545 19 282 11.3 17.7 0.00 0.00 0.00 37 1013.9
20260507210041 19 275 16.1 24.1 0.00 0.00 0.00 36 1014.0
20260507204540 18 277 9.7 19.3 0.00 0.00 0.00 35 1014.1
20260507203039 18 281 6.4 19.3 0.00 0.00 0.00 38 1014.2
20260507201536 18 265 9.7 19.3 0.00 0.00 0.00 40 1014.3
20260507200035 18 246 6.4 17.7 0.00 0.00 0.00 45 1014.3
20260507194533 18 272 11.3 25.7 0.00 0.00 0.00 40 1014.4
20260507193035 17 288 12.9 22.5 0.00 0.00 0.00 41 1014.4
20260507191529 17 284 8.0 22.5 0.00 0.00 0.00 44 1014.6
20260507190027 17 287 12.9 19.3 0.00 0.00 0.00 43 1014.6
20260507184525 17 278 9.7 20.9 0.00 0.00 0.00 40 1014.7
20260507183035 16 226 9.7 25.7 0.00 0.00 0.00 45 1014.9
20260507181519 16 289 12.9 22.5 0.00 0.00 0.00 49 1014.8
20260507180019 15 270 14.5 25.7 0.00 0.00 0.00 50 1014.9
20260507174518 15 278 16.1 25.7 0.00 0.00 0.00 47 1014.8
20260507173014 15 281 17.7 25.7 0.00 0.00 0.00 47 1015.0
20260507171512 15 276 17.7 24.1 0.00 0.00 0.00 47 1014.8
20260507170010 14 238 16.1 30.6 0.00 0.00 0.00 52 1014.9
20260507164509 14 257 16.1 25.7 0.00 0.00 0.00 54 1014.8